User: anonymous   Login
Location: Unspecified
(0.0000°N, 0.0000°E)
Time: 12:18:13
(UTC+00:00)
Language:

YUBILEINY - Orbit

View from above orbital plane
View from above orbital plane
View from above satellite
View from above satellite

Ground track
Ground track

The orbit data is extracted from the following two-line orbital elements,

1 32953U 08025A   20293.82433979 +.00000037 +00000-0 +19437-3 0  9995
2 32953 082.5065 200.5640 0019240 139.4182 220.8334 12.43098615563084
Epoch (UTC): 19 October 2020 19:47:02
Eccentricity: 0.0019240
inclination: 82.5065°
perigee height: 1478 km
apogee height: 1508 km
right ascension of ascending node: 200.5640°
argument of perigee: 139.4182°
revolutions per day: 12.43098615
mean anomaly at epoch: 220.8334°
orbit number at epoch: 56308

The dashed part of the orbit path shows where the satellite is in the earth's shadow,  

DLR